Weather History for Boone, IA

Change the Weather History Date:

Sunday, March 16, 2014

  Actual Average Record
Temperature  
Mean Temperature 24 °F -  
Max Temperature 30 °F 46 °F 81 °F (2012)
Min Temperature 19 °F 24 °F 7 °F (1979)
Degree Days  
Heating Degree Days 40    
Moisture  
Dew Point 15 °F    
Average Humidity 67    
Maximum Humidity 80    
Minimum Humidity 47    
Precipitation  
Precipitation 0.00 in - - ()
Sea Level Pressure  
Sea Level Pressure 30.25 in    
Wind  
Wind Speed 14 mph (ENE)    
Max Wind Speed 18 mph    
Max Gust Speed 24 mph    
Visibility 10 miles    
Events      
Averages and records for this station are not official NWS values.
T = Trace of Precipitation, MM = Missing Value Source: NWS Daily Summary

Daily Weather History Graph

Daily Weather History Graph

Search for Another Location

Airport:

Trip Planner

Search our weather history database for the weather conditions in past years. The results will help you decide how hot, cold, wet, or windy it might be!

Date:

Astronomy

Mar. 16, 2014 Rise Set
Actual Time 7:25 AM CDT 7:23 PM CDT
Civil Twilight 6:57 AM CDT 7:50 PM CDT
Nautical Twilight 6:25 AM CDT 8:23 PM CDT
Astronomical Twilight 5:52 AM CDT 8:56 PM CDT
Moon 7:42 PM CDT (3/16) 7:09 AM CDT (3/16)
Length of Visible Light 12h 53m
Length of Day
11h 57m
Full, 100% of the Moon is Illuminated
Mar 16
Full
Mar 16
Full
Mar 23
Last Quarter
Mar 30
New
Apr 7
First Quarter

Hourly Weather History & Observations

Time (CDT) Temp. Windchill Dew Point Humidity Pressure Visibility Wind Dir Wind Speed Gust Speed Precip Events Conditions
12:15 AM 28.4 °F 15.8 °F 21.2 °F 74% 30.23 in 10.0 mi NNE 18.4 mph - N/A   Overcast
12:35 AM 28.4 °F 15.8 °F 21.2 °F 74% 30.23 in 10.0 mi NNE 18.4 mph 24.2 mph N/A   Mostly Cloudy
1:15 AM 28.4 °F 15.8 °F 19.4 °F 69% 30.25 in 10.0 mi NNE 18.4 mph - N/A   Overcast
1:35 AM 26.6 °F 13.8 °F 17.6 °F 69% 30.26 in 10.0 mi NNE 17.3 mph - N/A   Overcast
1:55 AM 26.6 °F 14.7 °F 17.6 °F 69% 30.27 in 10.0 mi NNE 15.0 mph - N/A   Overcast
2:15 AM 26.6 °F 14.3 °F 17.6 °F 69% 30.27 in 10.0 mi NNE 16.1 mph - N/A   Overcast
2:35 AM 24.8 °F 11.9 °F 17.6 °F 74% 30.27 in 10.0 mi NNE 16.1 mph - N/A   Overcast
2:55 AM 24.8 °F 11.9 °F 15.8 °F 69% 30.28 in 10.0 mi NNE 16.1 mph - N/A   Overcast
3:15 AM 24.8 °F 11.9 °F 15.8 °F 69% 30.28 in 10.0 mi NNE 16.1 mph - N/A   Mostly Cloudy
3:35 AM 24.8 °F 11.9 °F 15.8 °F 69% 30.28 in 10.0 mi NNE 16.1 mph - N/A   Partly Cloudy
3:55 AM 23.0 °F 10.1 °F 15.8 °F 74% 30.28 in 10.0 mi NNE 15.0 mph - N/A   Partly Cloudy
4:15 AM 24.8 °F 12.4 °F 15.8 °F 69% 30.28 in 10.0 mi NNE 15.0 mph - N/A   Partly Cloudy
4:35 AM 23.0 °F 10.1 °F 14.0 °F 68% 30.28 in 10.0 mi NNE 15.0 mph - N/A   Scattered Clouds
4:55 AM 23.0 °F 9.6 °F 14.0 °F 68% 30.29 in 10.0 mi NNE 16.1 mph - N/A   Partly Cloudy
5:15 AM 23.0 °F 10.1 °F 14.0 °F 68% 30.28 in 10.0 mi NNE 15.0 mph - N/A   Clear
5:35 AM 23.0 °F 9.6 °F 14.0 °F 68% 30.29 in 10.0 mi NNE 16.1 mph - N/A   Clear
5:55 AM 21.2 °F 7.8 °F 14.0 °F 74% 30.29 in 10.0 mi NNE 15.0 mph - N/A   Clear
6:15 AM 21.2 °F 6.4 °F 12.2 °F 68% 30.29 in 10.0 mi NNE 18.4 mph - N/A   Clear
6:35 AM 21.2 °F 7.3 °F 12.2 °F 68% 30.29 in 10.0 mi NNE 16.1 mph 21.9 mph N/A   Clear
7:15 AM 19.4 °F 5.0 °F 10.4 °F 68% 30.29 in 10.0 mi NNE 16.1 mph - N/A   Clear
7:35 AM 19.4 °F 6.0 °F 10.4 °F 68% 30.30 in 10.0 mi NNE 13.8 mph - N/A   Clear
7:55 AM 19.4 °F 6.0 °F 10.4 °F 68% 30.30 in 10.0 mi NE 13.8 mph 19.6 mph N/A   Clear
8:15 AM 19.4 °F 5.5 °F 10.4 °F 68% 30.31 in 10.0 mi NNE 15.0 mph - N/A   Partly Cloudy
8:35 AM 19.4 °F 5.5 °F 10.4 °F 68% 30.32 in 10.0 mi NE 15.0 mph - N/A   Mostly Cloudy
8:55 AM 19.4 °F 5.5 °F 10.4 °F 68% 30.33 in 10.0 mi NE 15.0 mph 21.9 mph N/A   Overcast
9:15 AM 19.4 °F 5.0 °F 12.2 °F 74% 30.34 in 10.0 mi NE 16.1 mph - N/A   Overcast
9:35 AM 19.4 °F 6.0 °F 12.2 °F 74% 30.35 in 10.0 mi NE 13.8 mph - N/A   Overcast
9:55 AM 21.2 °F 7.8 °F 12.2 °F 68% 30.35 in 10.0 mi NE 15.0 mph - N/A   Overcast
10:15 AM 21.2 °F 7.8 °F 14.0 °F 74% 30.35 in 10.0 mi NNE 15.0 mph - N/A   Scattered Clouds
10:35 AM 21.2 °F 8.3 °F 14.0 °F 74% 30.36 in 10.0 mi NNE 13.8 mph - N/A   Clear
10:55 AM 23.0 °F 10.1 °F 14.0 °F 68% 30.37 in 10.0 mi NNE 15.0 mph - N/A   Clear
11:15 AM 23.0 °F 10.6 °F 15.8 °F 74% 30.36 in 10.0 mi NE 13.8 mph - N/A   Clear
11:35 AM 23.0 °F 11.7 °F 15.8 °F 74% 30.35 in 10.0 mi NE 11.5 mph - N/A   Clear
11:55 AM 24.8 °F 15.3 °F 17.6 °F 74% 30.35 in 10.0 mi NE 9.2 mph - N/A   Partly Cloudy
12:15 PM 24.8 °F 14.6 °F 17.6 °F 74% 30.35 in 10.0 mi ENE 10.4 mph - N/A   Scattered Clouds
12:35 PM 24.8 °F 14.0 °F 19.4 °F 80% 30.34 in 10.0 mi ENE 11.5 mph - N/A   Mostly Cloudy
12:55 PM 26.6 °F 16.2 °F 19.4 °F 74% 30.33 in 10.0 mi East 11.5 mph - N/A   Overcast
1:15 PM 26.6 °F 19.1 °F 19.4 °F 74% 30.32 in 10.0 mi ENE 6.9 mph 13.8 mph N/A   Overcast
1:55 PM 26.6 °F 17.5 °F 19.4 °F 74% 30.30 in 10.0 mi ENE 9.2 mph - N/A   Overcast
2:15 PM 26.6 °F 19.1 °F 17.6 °F 69% 30.28 in 10.0 mi ENE 6.9 mph - N/A   Mostly Cloudy
2:35 PM 28.4 °F 19.7 °F 17.6 °F 64% 30.27 in 10.0 mi ENE 9.2 mph - N/A   Mostly Cloudy
2:55 PM 28.4 °F 19.1 °F 15.8 °F 59% 30.25 in 10.0 mi East 10.4 mph - N/A   Mostly Cloudy
3:15 PM 28.4 °F 19.1 °F 17.6 °F 64% 30.25 in 10.0 mi East 10.4 mph - N/A   Scattered Clouds
3:35 PM 30.2 °F 20.8 °F 17.6 °F 60% 30.23 in 10.0 mi East 11.5 mph 17.3 mph N/A   Mostly Cloudy
3:55 PM 28.4 °F 19.1 °F 15.8 °F 59% 30.23 in 10.0 mi East 10.4 mph - N/A   Mostly Cloudy
4:15 PM 28.4 °F 19.7 °F 15.8 °F 59% 30.24 in 10.0 mi ENE 9.2 mph - N/A   Mostly Cloudy
4:35 PM 30.2 °F - 15.8 °F 55% 30.22 in 10.0 mi Calm Calm - N/A   Mostly Cloudy
4:55 PM 28.4 °F 24.6 °F 14.0 °F 55% 30.22 in 10.0 mi East 3.5 mph - N/A   Scattered Clouds
5:15 PM 30.2 °F 21.9 °F 12.2 °F 47% 30.20 in 10.0 mi East 9.2 mph - N/A   Mostly Cloudy
5:35 PM 28.4 °F 23.3 °F 14.0 °F 55% 30.19 in 10.0 mi NNE 4.6 mph - N/A   Scattered Clouds
5:55 PM 28.4 °F 22.2 °F 12.2 °F 51% 30.19 in 10.0 mi East 5.8 mph - N/A   Clear
6:15 PM 28.4 °F 22.2 °F 12.2 °F 51% 30.19 in 10.0 mi NE 5.8 mph - N/A   Clear
6:35 PM 28.4 °F 23.3 °F 14.0 °F 55% 30.20 in 10.0 mi East 4.6 mph - N/A   Clear
6:55 PM 28.4 °F 22.2 °F 14.0 °F 55% 30.19 in 10.0 mi East 5.8 mph - N/A   Clear
7:15 PM 26.6 °F 20.0 °F 12.2 °F 55% 30.19 in 10.0 mi ENE 5.8 mph - N/A   Clear
7:35 PM 26.6 °F 19.1 °F 14.0 °F 59% 30.18 in 10.0 mi East 6.9 mph - N/A   Clear
7:55 PM 26.6 °F 20.0 °F 14.0 °F 59% 30.18 in 10.0 mi East 5.8 mph - N/A   Clear
8:15 PM 24.8 °F 16.9 °F 14.0 °F 64% 30.17 in 10.0 mi East 6.9 mph - N/A   Clear
8:35 PM 24.8 °F 16.1 °F 15.8 °F 69% 30.16 in 10.0 mi East 8.1 mph - N/A   Clear
8:55 PM 24.8 °F 16.9 °F 15.8 °F 69% 30.15 in 10.0 mi ESE 6.9 mph - N/A   Clear
9:15 PM 24.8 °F 17.9 °F 15.8 °F 69% 30.16 in 10.0 mi ESE 5.8 mph - N/A   Clear
9:35 PM 24.8 °F 16.1 °F 15.8 °F 69% 30.15 in 10.0 mi ESE 8.1 mph - N/A   Clear
9:55 PM 24.8 °F 15.3 °F 17.6 °F 74% 30.14 in 10.0 mi ESE 9.2 mph - N/A   Clear
10:15 PM 24.8 °F 14.0 °F 17.6 °F 74% 30.12 in 10.0 mi SE 11.5 mph - N/A   Clear
10:35 PM 24.8 °F 14.6 °F 17.6 °F 74% 30.10 in 10.0 mi SE 10.4 mph - N/A   Scattered Clouds
10:55 PM 24.8 °F 14.0 °F 17.6 °F 74% 30.10 in 10.0 mi SE 11.5 mph - N/A   Mostly Cloudy
11:15 PM 24.8 °F 14.0 °F 17.6 °F 74% 30.09 in 10.0 mi SE 11.5 mph - N/A   Mostly Cloudy
11:35 PM 24.8 °F 13.4 °F 17.6 °F 74% 30.08 in 10.0 mi SE 12.7 mph - N/A   Partly Cloudy
11:55 PM 24.8 °F 14.6 °F 17.6 °F 74% 30.07 in 10.0 mi SE 10.4 mph - N/A   Scattered Clouds